Location: Karaa?a�
(36.7158°N, 30.4165°E)
Time: 01:12:51
(UTC+00:00)

SL-16 R/B - Pass Details

Date: 09 April 2020
Orbit: 985 x 1007 km, 99.5° (Epoch: 24 May)

Event Time Altitude Azimuth Distance (km) Brightness Sun altitude
Exits shadow 23:48:43 29° 348° (NNW) 1,732 4.0 -38.5°
Drops below altitude 10° 23:51:34 10° 347° (NNW) 2,773 5.2 -38.1°
Sets 23:54:03 0° 347° (NNW) 3,723 6.0 -37.8°
